TimeEST,TemperatureF,Dew PointF,Humidity,Sea Level PressureIn,VisibilityMPH,Wind Direction,Wind SpeedMPH,Gust SpeedMPH,PrecipitationIn,Events,Conditions,WindDirDegrees,DateUTC
12:54 AM,32.0,30.0,92,30.45,10.0,Calm,Calm,-,N/A,,Clear,0,2011-11-19 05:54:00
1:54 AM,32.0,30.0,92,30.44,10.0,Calm,Calm,-,N/A,,Clear,0,2011-11-19 06:54:00
2:54 AM,32.0,30.0,92,30.44,10.0,Calm,Calm,-,N/A,,Clear,0,2011-11-19 07:54:00
3:54 AM,33.1,30.0,89,30.43,10.0,North,3.5,-,N/A,,Clear,10,2011-11-19 08:54:00
4:54 AM,33.1,28.9,85,30.44,10.0,Calm,Calm,-,N/A,,Clear,0,2011-11-19 09:54:00
5:54 AM,33.1,28.9,85,30.45,10.0,Calm,Calm,-,N/A,,Clear,0,2011-11-19 10:54:00
6:54 AM,34.0,28.0,79,30.46,10.0,Calm,Calm,-,N/A,,Partly Cloudy,0,2011-11-19 11:54:00
7:54 AM,35.1,30.0,82,30.47,10.0,Calm,Calm,-,N/A,,Partly Cloudy,0,2011-11-19 12:54:00
8:54 AM,43.0,33.1,68,30.48,10.0,East,6.9,-,N/A,,Clear,80,2011-11-19 13:54:00
9:54 AM,48.9,34.0,56,30.47,10.0,ENE,6.9,-,N/A,,Clear,60,2011-11-19 14:54:00
10:54 AM,53.1,37.0,55,30.46,10.0,East,4.6,-,N/A,,Scattered Clouds,100,2011-11-19 15:54:00
11:54 AM,57.9,44.1,60,30.43,10.0,SSE,5.8,-,N/A,,Mostly Cloudy,150,2011-11-19 16:54:00
12:54 PM,62.1,45.0,53,30.39,10.0,NE,3.5,-,N/A,,Clear,40,2011-11-19 17:54:00
1:54 PM,64.9,46.0,50,30.36,10.0,Calm,Calm,-,N/A,,Clear,0,2011-11-19 18:54:00
2:54 PM,64.9,48.0,54,30.35,10.0,East,3.5,-,N/A,,Scattered Clouds,90,2011-11-19 19:54:00
3:54 PM,66.0,48.9,54,30.35,10.0,SE,3.5,-,N/A,,Overcast,140,2011-11-19 20:54:00
4:54 PM,64.0,50.0,60,30.35,10.0,Calm,Calm,-,N/A,,Overcast,0,2011-11-19 21:54:00
5:54 PM,59.0,52.0,78,30.35,10.0,Calm,Calm,-,N/A,,Overcast,0,2011-11-19 22:54:00
6:54 PM,54.0,51.1,90,30.35,10.0,Calm,Calm,-,N/A,,Partly Cloudy,0,2011-11-19 23:54:00
7:54 PM,52.0,50.0,93,30.35,10.0,SE,3.5,-,N/A,,Clear,130,2011-11-20 00:54:00
8:54 PM,51.1,48.9,92,30.34,10.0,Calm,Calm,-,N/A,,Mostly Cloudy,0,2011-11-20 01:54:00
9:54 PM,51.1,48.0,89,30.36,9.0,Calm,Calm,-,N/A,,Partly Cloudy,0,2011-11-20 02:54:00
10:54 PM,50.0,48.0,93,30.35,9.0,Calm,Calm,-,N/A,,Clear,0,2011-11-20 03:54:00
11:54 PM,50.0,48.9,96,30.35,8.0,Calm,Calm,-,N/A,,Overcast,0,2011-11-20 04:54:00